Location: Clermont
(50.2608°N, 4.3172°E)
Time: 07:18:25
(UTC+00:00)

USA 267 - Pass Details

Date: 13 August 2020
Orbit: 1101 x 1106 km, 123.0° (Epoch: 22 September)

Event Time Altitude Azimuth Distance (km) Brightness Sun altitude
Rises 19:32:07 0° 61° (ENE) 3,930 5.8 -4.7°
Reaches altitude 10° 19:35:14 10° 75° (ENE) 2,969 5.1 -5.2°
Maximum altitude 19:40:14 23° 126° (SE) 2,156 4.2 -5.9°
Drops below altitude 10° 19:45:14 10° 176° (S) 2,958 5.2 -6.6°
Sets 19:48:19 0° 190° (S) 3,913 5.9 -7.0°
